Torna al catalogo

STARLINK-34872

AttivoComunicazioniSSO
NORAD 65296·PAYLOAD·🇺🇸 United States

Lanciato Aug 22, 2025 da Vandenberg Space Force Base

Loading…

Prossimi Passaggi (prossime 24 ore)

TLE

AggiornatoSource: CelesTrak SupGP

Epoca: Sep 15, 2026, 03:08 UTC

1 65296C 25184Z   26258.13104167  .00026211  00000+0  81346-3 0  2588
2 65296  97.2833 306.2401 0000962  83.1439   4.1970 15.33433678    18

Traccia STARLINK-34872 in tempo reale con AllMySat

Download on the App Store